Other Public Products
Issued by NWS Grand Forks, ND

Home | Current Version | Previous Version | Text Only | Print | Product List | Glossary On
Versions: 1 2 3 4 5 6 7 8 9 10 11 12 13 14 15 16 17 18 19 20 21 22 23 24 25 26 27 28 29 30 31 32 33 34 35 36 37 38 39 40 41 42 43 44 45 46 47 48 49 50
000
FPUS83 KFGF 062131
OPUFGF
PRAIRIE TO PINES WEATHER ROUNDUP
NATIONAL WEATHER SERVICE EASTERN NORTH DAKOTA/GRAND FORKS ND
300 PM CST SAT FEB 06 2016

 **SATELLITE DATA USED TO AUGMENT SKY COVER AT AUTOMATED STATIONS**
 *****  WEATHER ACROSS EASTERN NORTH DAKOTA  *****

CITY           SKY/WX    TMP DP  RH WIND       PRES   REMARKS
GRAND FORKS    CLOUDY    39  31  72 S8        29.61F
GRAND FORKS AF CLOUDY    39  31  73 SW8       29.61F
GRAND CITY NWS   N/A     36 N/A N/A S15         N/A
BUXTON           N/A     38  36  93 S6          N/A
DEVILS LAKE    CLOUDY    38  31  76 SW12      29.57F
FARGO          CLOUDY    39  30  70 S14       29.67F
WAHPETON ARPT  PTCLDY    37  30  75 SW12      29.72F
$$

 *****  WEATHER ACROSS CENTRAL AND WESTERN NORTH DAKOTA  *****

CITY           SKY/WX    TMP DP  RH WIND       PRES   REMARKS
JAMESTOWN      CLOUDY    43  30  60 SW12      29.64F
BISMARCK       CLOUDY    52  27  38 W14       29.71R
MINOT          LGT RAIN  47  31  53 W31G46    29.62R
MINOT AFB      LGT RAIN  45  35  68 W25G36    29.59R
GARRISON         N/A     48  26  42 W20G46    29.65R
WILLISTON      PTSUNNY   49  25  39 W30G46    29.64F
DICKINSON      PTSUNNY   52  20  28 W39G51    29.68F
HETTINGER      PTSUNNY   56  21  25 W35G43    29.75F
$$

 *****  OTHER OBSERVATIONS NORTHEAST NORTH DAKOTA  *****

CITY           SKY/WX    TMP DP  RH WIND       PRES   REMARKS
WALHALLA       FAIR      41  34  75 SW7       29.53F
LANGDON        FAIR      37  32  81 SW13      29.52F
CAVALIER       FAIR      34  32  93 S9        29.55F
GRAFTON        FAIR      36  32  87 S13       29.58F
CANDO          FAIR      37  32  81 SW13      29.57F
FORT TOTTEN      N/A     40  30  68 SW7       29.95S
ROLLA          FAIR      39  32  75 SW16      29.52S
RUGBY          FAIR      41  32  70 W17       29.56S
 ***** THE ABOVE OBSERVATIONS ARE NON NWS ARE NOT QUALITY
        CONTROLLED AND MAY MIS-REPORT RAIN FOR SNOW...
$$

 *****  OTHER OBSERVATIONS SOUTHEAST NORTH DAKOTA *****

CITY           SKY/WX    TMP DP  RH WIND       PRES   REMARKS
COOPERSTOWN    NOT AVBL
VALLEY CITY    FAIR      39  36  87 SW16      29.66F
OAKES          MOCLDY    37  36  93 S13       29.70F
GWINNER          N/A     37  36  93 SW18      29.71F
SHEYENNE NWR     N/A     39  34  82 SW13      29.95S
BUFFALO          N/A     40  32  73 SW6         N/A
WYNDMERE         N/A     37  34  87 SW14        N/A
 ***** THE ABOVE OBSERVATIONS ARE NON NWS ARE NOT QUALITY
       CONTROLLED AND MAY MIS-REPORT RAIN FOR SNOW...
$$

  *****  WEATHER ACROSS NORTHERN MINNESOTA  *****

CITY           SKY/WX    TMP DP  RH WIND       PRES   REMARKS
FLAG ISLAND    LGT SNOW  28  25  86 SE8       29.65F WCI  20
WARROAD        CLOUDY    30  28  93 SE9       29.63F WCI  22
ROSEAU         CLOUDY    32  27  80 S12       29.62F WCI  23
HALLOCK        CLOUDY    34  30  86 S17       29.58F WCI  23
THF RVR FALLS  PTSUNNY   34  27  75 S15       29.64F WCI  24
HALSTAD          N/A     36  30  80 S14         N/A
FOSSTON        MOSUNNY   34  27  75 S16       29.66F WCI  23
BAUDETTE       LGT SNOW  31  27  85 SE7       29.65F VSB 3/4 WCI  24
WASKISH        LGT SNOW  34  30  86 SE5       29.68F
CROOKSTON      CLOUDY    36  30  80 S15       29.65F
$$
  *****  WEATHER ACROSS CENTRAL AND WEST MINNESOTA  *****

CITY           SKY/WX    TMP DP  RH WIND       PRES   REMARKS
BEMIDJI        CLOUDY    35  25  67 S9        29.68F
PARK RAPIDS    CLOUDY    37  25  61 SW12      29.72F
WADENA         CLOUDY    37  27  65 SW10      29.74S
DETROIT LAKES  CLOUDY    36  30  80 S12       29.70F
MOORHEAD       CLOUDY    36  30  80 S10       29.69F
FERGUS FALLS   MOSUNNY   37  30  75 S9        29.77F
ELBOW LAKE     CLOUDY    35  30  81 W12       29.77S HAZE
MORRIS MN      CLOUDY    37  28  70 SW7       29.79R
STAPLES        CLOUDY    37  25  60 S16       29.74F
WHEATON        DRIZZLE   39  32  75 SW12      29.78F
$$
  *****  WEATHER ELSEWHERE ACROSS MINNESOTA  *****

CITY           SKY/WX    TMP DP  RH WIND       PRES   REMARKS
DULUTH         CLOUDY    34  24  67 SW14      29.81F WCI  25
INTRNTL FALLS  CLOUDY    32  22  66 VRB6      29.73F
ELY            PTSUNNY   32  21  64 S9        29.77F WCI  24
CLOQUET        CLOUDY    34  23  64 S12       29.82S
BRAINERD       CLOUDY    36  24  62 S15       29.79F
HIBBING        CLOUDY    34  23  64 S8        29.77F
ALEXANDRIA     CLOUDY    38  26  62 SW16      29.77F
SAINT CLOUD    CLOUDY    37  26  64 S13       29.85F
MINNEAPOLIS    CLOUDY    36  26  67 S13G24    29.95F
$$

  *****  WEATHER ACROSS SOUTH DAKOTA  *****

CITY           SKY/WX    TMP DP  RH WIND       PRES   REMARKS
SIOUX FALLS    CLOUDY    34  25  69 S14       29.91F WCI  25
BROOKINGS      CLOUDY    35  28  75 S13       29.86F
WATERTOWN      CLOUDY    36  26  67 SW13      29.81F
HURON          CLOUDY    39  31  72 S12       29.83F
SISSETON       NOT AVBL
ABERDEEN       PTSUNNY   42  31  64 S12       29.77F
MITCHELL       CLOUDY    42  31  64 S12       29.87F
PIERRE         CLOUDY    49  28  44 SW18      29.79F
MOBRIDGE       CLOUDY    50  28  42 SW9       29.74S
RAPID CITY     MOSUNNY   53  31  42 SE3       29.84F
$$

  *****  SOME WEATHER IN NEARBY STATES *****

CITY           SKY/WX    TMP DP  RH WIND       PRES   REMARKS
GLASGOW MT     CLOUDY    43  23  45 W36G55    29.71F
GREAT FALLS MT PTSUNNY   40  17  39 W28G46    29.99R
CHEYENNE WY    MOSUNNY   39  22  50 W32G40    30.09S
SCOTTSBLUFF NE CLOUDY    41  26  55 W23G29    30.04F
OMAHA NE       CLOUDY    41  27  57 S15G22    30.10F
DES MOINES IA  MOSUNNY   35  28  75 SW13      30.14F
DAVENPORT IA   SUNNY     41  31  67 W13       30.15F
CHICAGO IL     MOSUNNY   40  28  62 W16       30.15F
EAU CLAIRE WI  CLOUDY    34  22  61 SW16      30.00F WCI  24
LA CROSSE WI   CLOUDY    32  24  72 SW16      30.09F WCI  21
$$

  *****  SOME NATIONAL WEATHER *****

CITY           SKY/WX    TMP DP  RH WIND       PRES   REMARKS
LA GUARDIA NY  PTSUNNY   40  19  43 SW12G20   30.30S
RALEIGH NC     MOSUNNY   47  18  31 VRB5      30.32S
ATLANTA GA     PTSUNNY   49  16  26 N13       30.23F
NEW ORLEANS LA PTSUNNY   56  22  26 N8        30.26S
OKLAHOMA CITY  MOSUNNY   50  26  39 W9        30.31F
ALBUQUERQUE NM SUNNY     48   8  19 W3        30.36F
SALT LAKE CITY PTSUNNY   41  21  44 W3        30.47F
LOS ANGELES CA SUNNY     75  21  13 W8        30.19F
BOISE ID       CLOUDY    44  31  60 NW3       30.43F
SEATTLE WA     CLOUDY    47  39  74 S8        30.45F
$$

*** WEATHER ACROSS MANITOBA...SASKATCHEWAN AND ONTARIO ***
                ***ONTARIO***

CITY           SKY/WX    TMP DP  RH WIND       PRES   REMARKS
GERALDTON      MOSUNNY    7  -6  56 W3        29.98R
THUNDER BAY    FLURRIES  23  18  80 E12       29.93F WCI  12
SIOUX LOOKOUT  FLURRIES  18  12  79 SE7       29.79F WCI   8
TORONTO        PTSUNNY   36  16  44 W23       30.12S
BIG TROUT LK   SUNNY    -11 -22  58 SE6       30.03F WCI -25
PICKLE LAKE    MOSUNNY    3 -11  51 E9        29.90F WCI -11
DRYDEN         CLOUDY    23  18  80 E10       29.73F WCI  12
KENORA         FLURRIES  27  19  74 SE10      29.67F WCI  17
$$
                *** MANITOBA***

CITY           SKY/WX    TMP DP  RH WIND       PRES   REMARKS
BRANDON        PTSUNNY   37  32  81 SW7       29.45F
DAUPHIN        SUNNY     28  25  86 E7        29.41F WCI  21
ISLAND LAKE    PTSUNNY    0  -9  65 E6G17     29.82  WCI -12
PILOT MOUND      N/A     36  30  80 SW14        N/A
THE PAS        FLURRIES  14  10  85 E9G18     29.46F WCI   2
THOMPSON       LGT SNOW  -4 -13  65 E9G20     29.75F WCI -20
WINNIPEG       CLOUDY    28  23  80 SE18      29.55F WCI  16
LYNN LAKE      LGT SNOW  -2  -8  78 E14       29.56F WCI -21
CHURCHILL      PTCLDY   -22 -31  63 S6        30.12S WCI -38
GILLAM         CLOUDY   -13 -24  58 SE7       29.97F WCI -29
$$
                ***SASKATCHEWAN***

CITY           SKY/WX    TMP DP  RH WIND       PRES   REMARKS
ESTEVAN        MOSUNNY   46  32  57 W16G26    29.53F
KINDERSLEY     PTSUNNY   39  21  48 NW30G39   29.65R
LLOYDMINSTER   PTSUNNY   39  23  52 W30G45    29.53R
PRINCE ALBERT  PTSUNNY   32  25  74 NW12      29.38R WCI  23
REGINA         LGT RAIN  39  34  81 W30G43    29.47R
YORKTON        SUNNY     41  30  65 SW15      29.34F   C1F1C2F2C3F3C4F4C5F5C6F6C7F7C8F8C9F9CaFaCbFbCcFcCdFdCe!


USA.gov is the U.S. government's official web portal to all federal, state and local government web resources and services.